[[{"header":{"parameterUnit":"m.s-1","parameterCategory":1,"la1":30.2991,"la2":30.254,"lo1":-89.0895,"lo2":-89.0444,"dy":0.0017,"dx":0.0017,"nx":28,"ny":28,"refTime":"2024-07-30T09:00:00:Z","depth":0,"parameterNumber":2,"parameterNumberName":"U-component_of_WINDS"},"data":[0,0,0,0,0,0,0,0,0,0,0,0,0,0,0,0,0,0,0,0,0,0,0,0,0,0,0,0,0,0,0,0,0,0,0,0,0,0,0,0,0,0,0,0,0,0,0,0,0,0,0,0,0,0,0,0,0,0,4.0655,4.0656,0,4.0794,4.0796,4.0797,4.0738,4.0734,4.0731,4.0728,4.0875,4.0882,4.0889,0,0,0,0,0,0,0,0,0,0,0,0,0,4.0338,4.0344,4.0654,4.0656,4.0658,4.0794,4.0796,4.0798,4.0738,4.0734,4.073,4.0726,4.0873,4.0881,4.0889,0,0,0,0,0,0,0,0,0,0,0,0,0,4.0477,4.0346,4.0654,4.0644,4.0645,4.0794,4.0796,4.0798,4.0739,4.0734,4.0729,4.0724,4.087,4.088,4.0891,4.1058,0,0,4.0923,4.0928,0,0,0,0,0,0,0,0,4.0469,4.0488,4.0644,4.0645,4.0646,4.0743,4.0738,4.0886,4.074,4.0704,4.0728,4.0722,4.0836,4.0849,4.0886,4.1065,4.1071,4.0924,4.093,4.0935,4.0938,0,0,0,0,0,0,0,4.0459,4.0482,4.071,4.0647,4.0648,4.0634,4.0648,4.0766,4.0797,4.0706,4.0702,4.0719,4.0835,4.0876,4.0889,4.1074,4.0924,4.0933,4.094,4.0944,4.1395,4.14,0,0,0,0,0,0,4.0449,4.0474,4.0705,4.0714,4.0543,4.0644,4.0659,4.0717,4.0795,4.0802,4.0724,4.0716,4.086,4.0877,4.0894,4.1093,4.0935,4.0945,4.0951,4.1389,4.1396,4.1402,0,0,0,0,0,0,4.0443,4.047,4.07,4.0593,4.0621,4.0655,4.072,4.0723,4.0763,4.0808,4.0813,4.076,4.0857,4.0879,4.1017,4.1098,4.095,4.0959,4.1382,4.1391,4.1399,4.1495,0,0,0,0,0,0,4.0434,4.0468,4.0532,4.0595,4.0627,4.082,4.0725,4.0729,4.0782,4.0773,4.0843,4.085,4.0855,4.1001,4.1028,4.111,4.0968,4.1375,4.1386,4.1396,4.1485,4.1506,4.1523,0,0,0,0,0,4.0423,4.0555,4.0536,4.0564,4.0707,4.0825,4.0843,4.0845,4.0788,4.0853,4.0881,4.0848,4.1085,4.1016,4.1045,4.1132,4.137,4.1383,4.1395,4.1476,4.1501,4.1523,0,0,0,0,0,0,4.0503,4.0563,4.0542,4.0699,4.0757,4.0814,4.0896,4.0872,4.0948,4.0937,4.0937,4.0954,4.1095,4.1128,4.105,4.1297,4.1219,4.1238,4.127,4.1295,4.1314,4.1303,4.0977,0,0,0,0,0,4.0538,4.0628,4.0676,4.081,4.0839,4.0863,4.0914,4.091,4.097,4.0995,4.1034,4.1095,4.1182,4.1241,4.1324,4.1489,4.1503,4.1563,4.1582,4.1598,4.1614,4.1701,4.1728,4.1443,4.1443,4.1443,0,0,4.0614,4.0657,4.0714,4.0827,4.0871,4.0964,4.0884,4.0986,4.1055,4.1011,4.1143,4.1173,4.1241,4.1393,4.1461,4.1424,4.1696,4.1614,4.1626,4.1634,4.1717,4.1744,4.1768,4.1452,4.145,4.1449,0,0,4.0797,4.084,4.0954,4.1,4.1067,4.1082,4.1109,4.117,4.1188,4.1319,4.1288,4.137,4.1522,4.1571,4.1616,4.1816,4.1788,4.1844,4.1945,4.203,4.2052,4.2072,4.2142,4.2167,4.186,4.186,4.186,0,4.0882,4.102,4.1017,4.1121,4.117,4.1133,4.1249,4.1294,4.1386,4.1421,4.1378,4.1566,4.1609,4.177,4.1819,4.1857,4.1888,4.1835,4.2049,4.2069,4.2087,4.2154,4.218,4.1866,4.1865,4.1865,4.1864,0,4.112,4.1216,4.13,4.1388,4.1447,4.1557,4.1571,4.1632,4.1622,4.1641,4.1774,4.1825,4.1917,4.1955,4.1948,4.2115,4.2089,4.2048,4.1969,4.2121,4.2183,4.2209,4.1875,4.1873,4.1871,4.1869,0,0,4.1359,4.1441,4.1472,4.151,4.1581,4.1656,4.1763,4.1851,4.1902,4.1967,4.2057,4.2185,4.2146,4.2197,4.2195,4.227,4.2422,4.2219,4.222,4.2253,4.2608,4.2637,4.2667,4.2404,4.2409,4.2413,4.2601,0,4.1547,4.1733,4.1733,4.1905,4.1993,4.1958,4.2051,4.2105,4.2125,4.2203,4.2226,4.2316,4.2258,4.2288,4.2361,4.2388,4.2493,4.2375,4.2487,4.2491,4.247,4.27,4.2732,4.2907,4.2626,4.263,4.2633,0,4.1791,4.186,4.2041,4.2096,4.2133,4.2217,4.2296,4.2371,4.2431,4.2441,4.2496,4.2482,4.2591,4.251,4.266,4.2579,4.2625,4.2646,4.2652,4.2662,4.2571,4.2714,4.2964,4.2989,4.2672,4.2669,4.2666,0,4.1945,4.2084,4.2209,4.2243,4.2312,4.2371,4.2403,4.2457,4.251,4.258,4.2613,4.2696,4.2741,4.2805,4.2813,4.2754,4.2964,4.2884,4.2974,4.2974,4.3019,4.3016,4.3278,4.3052,4.3051,4.3051,4.305,0,4.2154,4.2265,4.2279,4.2356,4.2479,4.2478,4.2601,4.2627,4.2676,4.2757,4.2733,4.281,4.2817,4.2896,4.2904,4.3026,4.3047,4.3057,4.3057,4.3059,4.3057,4.3088,4.3075,4.3058,4.3056,4.3055,4.3054,0,4.2346,4.236,4.2494,4.2547,4.2563,4.2651,4.2697,4.277,4.2787,4.2891,4.2915,4.2942,4.3034,4.3048,4.3158,4.3162,4.3308,4.3297,4.3287,4.3285,4.3374,4.3365,4.3664,4.3702,4.3452,4.3454,4.3456,0,4.2478,4.2563,4.2624,4.2675,4.2709,4.2794,4.2846,4.2848,4.2903,4.2976,4.3041,4.313,4.3201,4.335,4.338,4.3463,4.3452,4.3551,4.3465,4.3462,4.3452,4.3446,4.3453,4.3568,4.3571,4.3573,4.3575,0,4.271,4.2712,4.2787,4.2865,4.2928,4.2989,4.3048,4.3092,4.3101,4.3165,4.3257,4.3312,4.3422,4.351,4.3592,4.3625,4.3602,4.3602,4.3626,4.3628,4.3618,4.3622,4.3331,4.3595,4.3593,4.3591,4.359,4.3589,4.2876,4.2948,4.3001,4.3085,4.3129,4.3183,4.3254,4.3278,4.3355,4.3443,4.344,4.3541,4.3597,4.3704,4.3742,4.3822,4.379,4.3826,4.3835,4.3844,4.3851,4.3606,4.3837,4.3836,4.3836,4.3835,4.3835,0,4.3104,4.3136,4.3214,4.3294,4.3361,4.3331,4.3393,4.345,4.3539,4.3593,4.3663,4.3768,4.3853,4.3889,4.3972,4.4029,4.402,4.4051,4.4046,4.4054,4.3876,4.3845,4.4056,4.4056,4.4056,4.4056,4.4056,4.4056,4.3231,4.3351,4.3359,4.35,4.3531,4.3629,4.3667,4.3716,4.3759,4.3877,4.3946,4.3968,4.4015,4.4101,4.4177,4.4185,4.4217,4.4252,4.4255,4.4089,4.4067,4.4045,4.4016,4.4259,4.4259,4.4425,4.4427,4.4428]},{"header":{"parameterUnit":"m.s-1","parameterCategory":1,"la1":30.2991,"la2":30.254,"lo1":-89.0895,"lo2":-89.0444,"dy":0.0017,"dx":0.0017,"nx":28,"ny":28,"refTime":"2024-07-30T09:00:00:Z","depth":0,"parameterNumber":3,"parameterNumberName":"V-component_of_WINDS"},"data":[0,0,0,0,0,0,0,0,0,0,0,0,0,0,0,0,0,0,0,0,0,0,0,0,0,0,0,0,0,0,0,0,0,0,0,0,0,0,0,0,0,0,0,0,0,0,0,0,0,0,0,0,0,0,0,0,0,0,-0.3173,-0.3173,0,-0.3168,-0.3168,-0.3168,-0.3172,-0.3172,-0.3172,-0.3172,-0.3166,-0.3166,-0.3165,0,0,0,0,0,0,0,0,0,0,0,0,0,-0.3186,-0.3186,-0.3173,-0.3173,-0.3173,-0.3168,-0.3168,-0.3168,-0.3172,-0.3172,-0.3172,-0.3172,-0.3166,-0.3166,-0.3165,0,0,0,0,0,0,0,0,0,0,0,0,0,-0.3181,-0.3186,-0.3173,-0.3174,-0.3174,-0.3168,-0.3168,-0.3168,-0.3171,-0.3172,-0.3172,-0.3172,-0.3166,-0.3166,-0.3165,-0.3158,0,0,-0.3164,-0.3164,0,0,0,0,0,0,0,0,-0.3181,-0.318,-0.3174,-0.3174,-0.3174,-0.3171,-0.317,-0.3165,-0.3171,-0.3173,-0.3172,-0.3172,-0.3167,-0.3167,-0.3165,-0.3157,-0.3157,-0.3164,-0.3164,-0.3163,-0.3163,0,0,0,0,0,0,0,-0.3181,-0.318,-0.3171,-0.3174,-0.3174,-0.3175,-0.3174,-0.3169,-0.3169,-0.3173,-0.3173,-0.3172,-0.3167,-0.3166,-0.3165,-0.3157,-0.3164,-0.3163,-0.3163,-0.3163,-0.3143,-0.3142,0,0,0,0,0,0,-0.3182,-0.3181,-0.3172,-0.3171,-0.3178,-0.3175,-0.3174,-0.3172,-0.3169,-0.3169,-0.3172,-0.3172,-0.3166,-0.3166,-0.3165,-0.3156,-0.3163,-0.3163,-0.3163,-0.3143,-0.3143,-0.3142,0,0,0,0,0,0,-0.3182,-0.3181,-0.3172,-0.3176,-0.3175,-0.3174,-0.3171,-0.3171,-0.317,-0.3168,-0.3168,-0.317,-0.3167,-0.3166,-0.316,-0.3156,-0.3163,-0.3162,-0.3143,-0.3143,-0.3143,-0.3138,0,0,0,0,0,0,-0.3182,-0.3181,-0.3178,-0.3176,-0.3175,-0.3166,-0.3171,-0.3171,-0.3169,-0.317,-0.3167,-0.3167,-0.3167,-0.316,-0.3159,-0.3155,-0.3162,-0.3144,-0.3143,-0.3143,-0.3138,-0.3137,-0.3136,0,0,0,0,0,-0.3183,-0.3177,-0.3178,-0.3177,-0.3171,-0.3166,-0.3165,-0.3166,-0.3169,-0.3166,-0.3165,-0.3167,-0.3156,-0.316,-0.3158,-0.3154,-0.3144,-0.3143,-0.3143,-0.3138,-0.3137,-0.3136,0,0,0,0,0,0,-0.3178,-0.3176,-0.3178,-0.3171,-0.3169,-0.3167,-0.3163,-0.3165,-0.3161,-0.3162,-0.3163,-0.3162,-0.3156,-0.3154,-0.3158,-0.3147,-0.3151,-0.315,-0.3148,-0.3147,-0.3146,-0.3146,-0.3162,0,0,0,0,0,-0.3176,-0.3172,-0.3171,-0.3165,-0.3164,-0.3164,-0.3162,-0.3162,-0.316,-0.3159,-0.3158,-0.3155,-0.3152,-0.3149,-0.3145,-0.3138,-0.3137,-0.3135,-0.3134,-0.3133,-0.3132,-0.3128,-0.3127,-0.314,-0.314,-0.314,0,0,-0.3172,-0.3171,-0.3168,-0.3164,-0.3163,-0.3159,-0.3163,-0.3159,-0.3156,-0.3158,-0.3153,-0.3152,-0.3149,-0.3142,-0.3139,-0.3141,-0.3128,-0.3132,-0.3132,-0.3131,-0.3127,-0.3126,-0.3125,-0.314,-0.314,-0.314,0,0,-0.3163,-0.3162,-0.3157,-0.3155,-0.3153,-0.3153,-0.3152,-0.315,-0.3149,-0.3143,-0.3145,-0.3142,-0.3135,-0.3133,-0.3132,-0.3122,-0.3124,-0.3121,-0.3116,-0.3112,-0.3111,-0.311,-0.3107,-0.3106,-0.312,-0.312,-0.312,0,-0.3158,-0.3153,-0.3154,-0.3149,-0.3148,-0.315,-0.3145,-0.3143,-0.314,-0.3139,-0.3141,-0.3133,-0.3131,-0.3124,-0.3122,-0.312,-0.3119,-0.3121,-0.3111,-0.311,-0.3109,-0.3106,-0.3105,-0.312,-0.312,-0.312,-0.312,0,-0.3147,-0.3143,-0.314,-0.3137,-0.3134,-0.3129,-0.313,-0.3127,-0.3128,-0.3128,-0.3122,-0.312,-0.3116,-0.3115,-0.3116,-0.3108,-0.3109,-0.3111,-0.3115,-0.3108,-0.3105,-0.3104,-0.312,-0.312,-0.312,-0.312,0,0,-0.3135,-0.3133,-0.3131,-0.313,-0.3128,-0.3125,-0.312,-0.3117,-0.3115,-0.3112,-0.3108,-0.3103,-0.3105,-0.3103,-0.3104,-0.31,-0.3093,-0.3103,-0.3103,-0.3101,-0.3084,-0.3083,-0.3081,-0.3094,-0.3094,-0.3094,-0.3085,0,-0.3125,-0.3118,-0.3119,-0.3111,-0.3107,-0.311,-0.3106,-0.3104,-0.3104,-0.3101,-0.31,-0.3097,-0.31,-0.3098,-0.3095,-0.3095,-0.309,-0.3095,-0.309,-0.309,-0.3091,-0.308,-0.3078,-0.3069,-0.3084,-0.3083,-0.3083,0,-0.3113,-0.3111,-0.3103,-0.3102,-0.31,-0.3097,-0.3094,-0.3091,-0.3089,-0.3089,-0.3087,-0.3088,-0.3083,-0.3088,-0.3081,-0.3085,-0.3083,-0.3082,-0.3082,-0.3082,-0.3086,-0.3079,-0.3067,-0.3065,-0.3081,-0.3081,-0.3082,0,-0.3105,-0.31,-0.3094,-0.3093,-0.3092,-0.3089,-0.3088,-0.3087,-0.3085,-0.3082,-0.3081,-0.3078,-0.3076,-0.3073,-0.3074,-0.3077,-0.3067,-0.3071,-0.3067,-0.3067,-0.3064,-0.3065,-0.3052,-0.3063,-0.3064,-0.3064,-0.3064,0,-0.3094,-0.309,-0.3091,-0.3087,-0.3082,-0.3083,-0.3078,-0.3077,-0.3076,-0.3072,-0.3075,-0.3071,-0.3072,-0.3069,-0.3069,-0.3064,-0.3063,-0.3063,-0.3063,-0.3062,-0.3062,-0.3061,-0.3062,-0.3063,-0.3063,-0.3063,-0.3063,0,-0.3084,-0.3085,-0.3079,-0.3078,-0.3078,-0.3074,-0.3073,-0.307,-0.307,-0.3065,-0.3064,-0.3064,-0.3061,-0.3061,-0.3057,-0.3057,-0.305,-0.3051,-0.3051,-0.3051,-0.3047,-0.3047,-0.3032,-0.3031,-0.3044,-0.3043,-0.3043,0,-0.3077,-0.3074,-0.3072,-0.307,-0.3069,-0.3066,-0.3064,-0.3065,-0.3063,-0.3061,-0.3058,-0.3055,-0.3052,-0.3046,-0.3045,-0.3042,-0.3043,-0.3038,-0.3042,-0.3042,-0.3043,-0.3043,-0.3043,-0.3037,-0.3037,-0.3037,-0.3037,0,-0.3065,-0.3066,-0.3063,-0.306,-0.3058,-0.3056,-0.3054,-0.3052,-0.3053,-0.3051,-0.3047,-0.3045,-0.3041,-0.3038,-0.3035,-0.3034,-0.3035,-0.3035,-0.3034,-0.3034,-0.3034,-0.3034,-0.3048,-0.3036,-0.3036,-0.3036,-0.3036,-0.3036,-0.3056,-0.3053,-0.3052,-0.3049,-0.3048,-0.3046,-0.3043,-0.3043,-0.304,-0.3037,-0.3038,-0.3034,-0.3032,-0.3028,-0.3027,-0.3024,-0.3026,-0.3024,-0.3023,-0.3023,-0.3022,-0.3035,-0.3023,-0.3023,-0.3023,-0.3023,-0.3023,0,-0.3044,-0.3043,-0.3041,-0.3038,-0.3036,-0.3038,-0.3036,-0.3034,-0.303,-0.3029,-0.3026,-0.3022,-0.3019,-0.3018,-0.3015,-0.3013,-0.3014,-0.3012,-0.3012,-0.3012,-0.3021,-0.3022,-0.3012,-0.3012,-0.3012,-0.3012,-0.3012,-0.3012,-0.3037,-0.3033,-0.3033,-0.3027,-0.3027,-0.3023,-0.3022,-0.302,-0.3019,-0.3015,-0.3012,-0.3012,-0.3011,-0.3008,-0.3005,-0.3005,-0.3003,-0.3001,-0.3002,-0.301,-0.3011,-0.3012,-0.3014,-0.3001,-0.3001,-0.2993,-0.2993,-0.2993]}]]